STARLINK-32785, 62531

Orbit data source: Space-Track

STARLINK-32785, 62531 is a payload satellite owned by SpaceX/Seattle (US) in LEO that was launched on Wed, 08 Jan 2025 UTC via an FALCON 9 launch vehicle from the Air Force Eastern Test Range (AFETR). Payload-class satellites include a variety of spacecraft equipped with specific instruments for various scientific and technological missions. These include communications satellites like Starlink; space stations such as the ISS; scientific satellites like the Hubble; Earth observation satellites from companies like Planet Labs, Umbra, and HawkEye 360; GPS; miniature CubeSats for education and research; and military/defense satellites.

Loading next visibility...
Identifier
62531, 2025-004W
Orbit
LEO
Country
Flag of USUS
Related business
Manufacturer
SpaceX/Seattle
Mission
Operational Commercial Communications
Bus & Motor
STARLINK V2M, Unknown motor
Mass
730 kg wet, ~700 kg dry
Launch date (UTC)
2025-01-08 (1 year ago)
Launch vehicle
FALCON 9
Launch site
Air Force Eastern Test Range (AFETR)
Object type
Payload
Rocket body
Debris
Shape & HBR
Box + 2 Pan, 17.7 m
Radar Cross Section
33.884 m², Large (>1 m²)

Expand to show TLE details & history
Last TLE update: 8 hours ago

TLE from 8 hours ago
0 STARLINK-32785
1 62531U 25004W   26095.28555320  .00032132  00000-0  11713-2 0  9996
2 62531  43.0005  69.8872 0001371 263.2077  96.8619 15.27602451 70526
Epoch: 2026-04-05T06:51Z
TLE epoch observation values (Epoch: 2026-04-05T06:51:11.796Z)
Latitude
Longitude
133.49489°
Altitude
482.87 km
Speed
7.626 km/s
True Right ascension
04h 39m 32s
True Declination
0° 00' 00"
Sunlit
Object was in daylight at epoch
Visualization orbit readout
Latitude
Unknown
Longitude
Unknown
Altitude
Unknown
Speed
Unknown
Apparent Right ascension
Unknown
Apparent Declination
Unknown
Sunlit
N/A
Visualization observer readout
Local Sidereal Time
21:14:15
Azimuth
Unknown
Elevation
Unknown
Doppler factor
Unknown
Orbital elements
Apogee altitude
485.868 km
Perigee altitude
483.986 km
Semi-major axis
6,863.064 km
Eccentricity
0.00014
Inclination
43.0005°
RAAN
69.8872°
Arg. of periapsis
263.2077°
True anomaly
96.8775°
Mean anomaly
96.8619°
Eccentric anomaly
96.8697°
Mean motion
3.81739 °/min
Orbital period
94.31 mins
BSTAR
0.0011713
Loading maneuver chart data...
Computing Atmospheric mass density...
Loading historical data...
Loading historical data...
Loading historical data...
Loading historical data...
Loading historical data...
Loading historical data...
Loading historical data...

Documentation

Showing up to 5 results
|